Japanese version Home page |
Updated on September 11, 2022 |
Profile
|
Orbital ElementsEpoch 2022 Jan. 21.0 TT = JDT 2459600.5 T 2022 Feb. 2.77653 TT Rudenko q 5.2295107 (2000.0) P Q z -0.0005715 Peri. 182.00600 +0.39123325 -0.65525435 +/-0.0000095 Node 114.45196 -0.83415897 +0.04411117 e 1.0029887 Incl. 134.77547 -0.38873558 -0.75411932 From 26 observations 2021 July 6-2022 May 10, mean residual 0".4.
|
Magnitudes Graphm1 = 10.0 + 5 log d + 10.0 log r
|
The orbital elements are published on M.P.E.C. 2022-K19.
|